Miscellaneous Local Product
Issued by NWS Hastings, NE

Home | Current Version | Previous Version | Graphics & Text | Print | Product List | Glossary On
Versions: 1 2 3 4 5 6 7 8 9 10 11 12 13 14 15 16 17 18 19 20 21 22 23 24 25 26 27 28 29 30 31 32 33 34 35 36 37 38 39 40 41 42 43 44 45 46 47 48 49 50
000
AXUS43 KGID 270602
MISGRI

GID CWA HOURLY WEATHER ROUNDUP
NATIONAL WEATHER SERVICE HASTINGS NE
100 AM CDT WED AUG 27 2014

NOTE: "FAIR" INDICATES FEW OR NO CLOUDS BELOW 12,000 FEET WITH NO
SIGNIFICANT WEATHER AND/OR OBSTRUCTIONS TO VISIBILITY.

...SOUTH CENTRAL NEBRASKA...

CITY           SKY/WX    TMP DP  RH WIND       PRES   REMARKS
GRAND ISLAND   MOCLDY    68  66  93 E7        30.14F FOG
HASTINGS       FAIR      69  65  86 E9        30.13S
KEARNEY        CLOUDY    70  66  88 NE9       30.13F
ORD            CLOUDY    67  65  93 SE5       30.13F
YORK           CLOUDY    68 N/A N/A NE6       30.14S
AURORA         FAIR      67  67 100 NE5       30.14R FOG
LEXINGTON      CLOUDY    71  69  93 E12       30.13S
HOLDREGE       FAIR      69  68  94 CALM      30.12F FOG
HEBRON         FAIR      71  66  85 E3        30.11S

...NEBRASKA PANHANDLE...

CITY           SKY/WX    TMP DP  RH WIND       PRES   REMARKS
CHADRON        PTCLDY    64  60  87 N7        30.13R
ALLIANCE       MOCLDY    65  61  87 SE6       30.14F
SCOTTSBLUFF    PTCLDY    64  62  93 SE5       30.14R
SIDNEY         PTCLDY    66  61  84 SE9       30.18S

...WESTERN AND NORTH CENTRAL NEBRASKA...

CITY           SKY/WX    TMP DP  RH WIND       PRES   REMARKS
VALENTINE      CLOUDY    68  64  87 SE8       30.12S
AINSWORTH      MOCLDY    66  65  95 SE7       30.14S
ONEILL         CLOUDY    67  66  94 SE9       30.15F
BROKEN BOW     CLOUDY    69  67  93 SE10      30.14F FOG
IMPERIAL       CLOUDY    68  65  90 SE8       30.16S
NORTH PLATTE   CLOUDY    68  66  93 E9        30.13F
MCCOOK         TSTM      69  67  93 SW28G36   30.16R VSB 3/4

...EASTERN NEBRASKA...

CITY           SKY/WX    TMP DP  RH WIND       PRES   REMARKS
NORFOLK        CLOUDY    65  62  90 CALM      30.14F
SO SIOUX CITY  MOCLDY    64  61  90 SE3       30.15F
TEKAMAH        FAIR      66  64  93 CALM      30.14S
COLUMBUS       FAIR      64  63  94 E5        30.15F
ALBION         CLOUDY    66  63  89 E5        30.15F
OMAHA EPPLEY   MOCLDY    69  66  90 NW3       30.13R
OFFUTT AFB     MOCLDY    70  70  99 E5        30.12S
MILLARD        FAIR      70  66  87 CALM      30.12F
LINCOLN        FAIR      68  65  90 N6        30.13S
NEBRASKA CITY  MOCLDY    68  68 100 NE5       30.12S
BEATRICE       FAIR      69  68  95 NE5       30.11R
FALLS CITY     FAIR      72  70  93 E5        30.09S

...NORTHERN KANSAS...

CITY           SKY/WX    TMP DP  RH WIND       PRES   REMARKS
GOODLAND       LGT RAIN  64  63  96 NE3       30.18F
HILL CITY      CLOUDY    75  66  73 E3        30.10S
NORTON         MOCLDY    73  63  68 SE6       30.09F
PHILLIPSBURG   PTCLDY    73  64  73 E6        30.09F
SMITH CENTER   MOCLDY    72  66  83 E7        30.10S
BELOIT         MOCLDY    75  68  78 E8        30.08R
HAYS           FAIR      73  66  78 SE7       30.09F
RUSSELL        FAIR      76  68  76 SE8       30.08S
CONCORDIA      FAIR      71  69  93 SE5       30.09S
SALINA         MOCLDY    78  67  68 SE5       30.07F
TOPEKA         FAIR      79  75  87 E3        30.08R



USA.gov is the U.S. government's official web portal to all federal, state and local government web resources and services.